Погода в Маразе

Погода в Маразе : погода сейчас, прогноз погоды и архив. Всё, что Вы хотите узнать о погоде в Маразе!

Поиск расширенной информации на нашем сайте:

Другие новости

Новости СМИ2

Главная страница сайта

Новости сайта

03.07.2017

Напоминаем, что на нашем специализированном сайте Метеоцентр.Азия вы можете получить высокодетализированные автоматические прогнозы погоды по пунктам России, СНГ и мира в авиационном формате (включающие направление и скорость ветра, видимость, явления погоды, количество и форму облачности, нижнюю и верхнюю границу облачности).


Погода в Маразе - сегодня

Время (UTC), дата Ветер
(°,м/с) 
Видим.   Явления Облачность Т
(°С)
Тd
(°С)
f(%) Тe
(°С)
Pmin
(гПа)
dP
(гПа)
Po
(мм)
O2
(г/м3)
Тmin Tmax R s Состояние
почвы
06 17.09.17 110 (В) 20000 м    ясно 
+26.1 +6.4 28 +26  1019.4  0.6  702  257  +11.3         
09 17.09.17 150 (ЮВ) 20000 м    ясно 
+28 +1.7 18 +28  1018.7  -0.3  702  256           
12 17.09.17 100 (В) 20000 м    ясно 
+28.6 +3.8 20 +29  1017.3  -1  701  255           
15 17.09.17 130 (ЮВ) 20000 м    ясно 
+23.4 +5.1 31 +23  1017.8  -0.9  701  259           
21 17.09.17 тихо ()   10 км    ясно 
+13.5 +7.4 67 +14  1022.1  0.3  701  268           
00 18.09.17 тихо ()   10 км    ясно 
+11.6 +5.8 68 +12  1021.5  -1.1  701  270           
03 18.09.17 280 (З) 20000 м    ясно 
+13 +5.3 59 +13  1021  -0.1  701  268           
09 18.09.17 190 (Ю) 20000 м    ясно 
+26.8 +6.1 27 +27  1017.1  -0.1  701  256           
12 18.09.17 210 (ЮЗ) 20000 м    ясно 
+27.5 +6.8 27 +28  1015.8  -1.1  700  255           
15 18.09.17 210 (ЮЗ) 20000 м    ясно 
+24.2 +10.5 42 +27  1016.1  -0.5  700  257           
18 18.09.17 тихо ()   10 км    ясно 
+17.4 +8.2 55 +18  1019.1  0.8  700  264    +28.3       
21 18.09.17 тихо ()   10 км    ясно 
+13.8 +8.9 72 +15  1020.4  0.2  700  267           
00 19.09.17 тихо ()   10 км    ясно 
+11.8 +8.5 80 +12  1019.9  -1  700  269           
03 19.09.17 290 (З) 20000 м    ясно 
+15 +8.9 67 +17  1018.5  -0.4  699  265           
06 19.09.17 200 (Ю) 20000 м    ясно 
+23.1 +9.7 43 +25  1017  700  258  +11.3         
09 19.09.17 190 (Ю) 20000 м    ясно 
+26.3 +8.4 32 +27  1015.8  -0.3  700  256           
12 19.09.17 180 (Ю) 20000 м    ясно 
+28 +8.8 30 +29  1014.3  -1  699  254           
15 19.09.17 180 (Ю) 20000 м    ясно 
+24.5 +10.3 41 +27  1015.4  0.2  699  257           
18 19.09.17 тихо ()   10 км    ясно 
+17.8 +11.8 68 +23  1017.6  0.2  699  262    +29       
21 19.09.17 280 (З) 10 км    ясно 
+17 +11.3 69 +22  1018.8  0.9  700  263           
00 20.09.17 270 (З) 10 км    ясно 
+16.4 +10.2 67 +21  1017.7  -1.3  699  264           
03 20.09.17 тихо ()   20000 м    ясно 
+13.6 +5.3 57 +14  1018.4  -0.2  699  267           
06 20.09.17 150 (ЮВ) 20000 м    4/0 верхняя 
[Ci sp]
+24.2 +7 33 +24  1016.6  1.3  700  258  +12.9         
09 20.09.17 160 (Ю) 20000 м    3/0 средняя 
[Ac As]
+26.1 +13.8 47 +35  1014.5  -1.2  699  254           
12 20.09.17 220 (ЮЗ) 20000 м    1/0 верхняя 
[Ci sp]
+27.2 +9 32 +28  1013.6  -0.7  698  254           
Время (UTC), дата Ветер
(°,м/с) 
Видим.   Явления Облачность Т
(°С)
Тd
(°С)
f(%) Тe
(°С)
Pmin
(гПа)
dP
(гПа)
Po
(мм)
O2
(г/м3)
Тmin Tmax R s Состояние
почвы

Для получения пояснительной информации подведите курсор к названию столбца.

ПОГОДА в Маразе - архив

Всё, что Вы хотите узнать о погоде в Маразе - удобно и подробно!

Выберите нужную дату (начиная с 1 января 2015* года) и нажмите кнопку "Найти".
Будут отображены архивные сводки погоды по пункту Мараза, начиная с указанной даты.


Отображать данные в формате CSV (для использования в таблицах Excel)


Внимание! Наш архив погоды предназначен исключительно для личного некоммерческого использования в познавательных целях. Если Вам необходимы официальные справки о состоянии погоды (для производственных, юридических, коммерческих и т.п. целей), обращайтесь в органы Росгидромета.

*Примечание: данная дата относится к архиву по метеостанциям СССР (Россия, СНГ, Балтия).
Архив по метеостанциям Зарубежной Европы и Азии (кроме Китая) хранится 10 дней, по другим регионам земного шара (Китай, Африка, Америка, Австралия, Океания) - 1 день.

Мараза - район местоположения метеостанции


Название, широта, долгота, высота метеостанции:
Мараза 40.5°ш. 48.9°д. 755 м над ур. моря [Азербайджан]

Дополнительная информация

В oтличие oт бoльшинства пoгoдных сайтoв мы публикуем пoдрoбную метеoинфoрмацию в детальнoм прoфессиoнальнoм фoрмате.

Характеристики температуры и влажнoсти вoздуха измеряются на высoте 2 м в тени вдали oт зданий и деревьев.
Скoрoсть ветра измеряется на высoте 10 м (на урoвне рoста челoвека скoрoсть ветра ниже в 1.5-2 раза). Если метеoстанция нахoдится в гoрoде или в лесу, тo скoрoсть ветра занижена на 2-4 м/с пo сравнению с oткрытым местoм. Скoрoсть ветра над акватoриями крупных рек и oзёр, а также на вершинах хoлмoв на 2-5 м/с выше, чем в oбычных услoвиях.
Атмoсфернoе давление в разных тoчках местнoсти мoжет значительнo oтличаться oт давления на метеoстанции, в зависимoсти oт услoвий рельефа (при пoдъёме на 10 м давление пoнижается примернo на 1 мм рт.ст.).